Tracking 19149 objects as of 20-Apr-2018
HD Live streaming from Space Station
objects crossing your sky now

ISO

Track ISO now!
ISO is classified as:


NORAD ID: 23715
Int'l Code: 1995-062A
Perigee: 590.4 km
Apogee: 70,039.5 km
Inclination: 4.9 °
Period: 1,411.7 minutes
Semi major axis: 41685 km
RCS: 3.9811 m2 (large)
Launch date: November 17, 1995
Source: European Space Agency (ESA)
Launch site: FRENCH GUIANA (FRGUI)
aabbcc
Your satellite tracking list
Your tracking list is empty




NASA's NSSDC Master Catalog

Two Line Element Set (TLE):
1 23715U 95062A   18106.97593889  .00000712  00000-0  58382-1 0  9991
2 23715   4.8845 351.1381 8330040 219.9314  30.5400  1.02004316 83222
Source of the keplerian elements: AFSPC